World > North America > United States > Florida > Panama City Beach   Visit Panama City Beach

Hourly Panama City Beach, FL Regional Weather

Feedback E-mail the Weather

Quick WX

Panama City Beach, FL Weather Maps

°F °C°F °C
Panama City Beach Weather Map
UTC Time: 9/25/2022, 21:25
Your Time:

Panama City Beach, FL Regional Weather

Expires:202209252200;;450234
ASUS42 KTBW 252111
RWRFL 
FLORIDA REGIONAL WEATHER ROUNDUP
NATIONAL WEATHER SERVICE TAMPA BAY RUSKIN FL
500 PM EDT SUN SEP 25 2022

NOTE: "FAIR" INDICATES FEW OR NO CLOUDS BELOW 12,000 FEET WITH NO
SIGNIFICANT WEATHER AND/OR OBSTRUCTIONS TO VISIBILITY.


FLZ001>010-012>015-112-114-115-252200-
PANHANDLE FLORIDA
  
CITY           SKY/WX    TMP DP  RH WIND       PRES   REMARKS
PENSACOLA      MOSUNNY   89  73  59 VRB5      29.88S HX  97           
PENSACOLA NAS  PTSUNNY   87  71  58 S10       29.88F                  
CRESTVIEW      MOSUNNY   92  67  43 N10       29.90S HX  95           
DUKE FIELD     FAIR      92  65  40 NW7       29.88S                  
VALPARAISO     SUNNY     85  71  62 S9        29.86S                  
MARY ESTHER    MOSUNNY   86  70  58 SW12      29.87F                  
PANAMA CITY    FAIR      89  68  49 S6        29.87F                  
TYNDALL AFB    SUNNY     86  68  54 W10       29.87F                  
APALACHICOLA   SUNNY     85  73  67 S8        29.88F                  

STATION/POSITION SKY/WX   TEMP    WIND        PRES    WAVE   SWELL
                          AIR SEA DIR/SP/G            HT/PER HT/PER
                          (F)     (DEG/KT/KT) (MB)    (FT/S) (FT/S)
30.1N   87.6W              83 85  190/  8/ 10 1011.9F   1/ 5   2/ 5
29.2N   88.2W              83      30/  6/  8 1013.1F   2/ 5   2/ 5
28.8N   86.0W              83      40/  8/ 10 1012.7F   2/ 5   2/ 5
PANAMA CITY BEAC           83 85  230/  8/  9 1012.8
TOWER C                    81                 1012.2F
28.5N   84.5W              82 85   70/  8/ 10 1010.5F   2/ 4

$$

SKY/WX - Weather  TMP - Temperature  DP - Dew Point  RH - Humidity
WIND - Wind Direction/Speed PRES - Barometric Pressure VSB - Visibility
WCI - Wind Chill Index E13G22 Wind - East Wind 13 mph/Gusts of 22 mph

Trending Headlines

Trending Entertainment Headlines

Panama City Beach Radar Loop

Use the map search tool if you want to place a location marker on the radar map...

Panama City Beach Quick Facts

National Two Day Weather Forecast


E-mail the Panama City Beach Weather Forecast

Voice your opinion or tell us about page issues...